Location: Grand Mazuras
(45.9128°N, 1.7636°E)
Time: 05:02:51
(UTC+00:00)

Cosmos-2242 - Pass Details

Date: 18 April 2021
Orbit: 589 x 618 km, 82.5° (Epoch: 10 May)

Event Time Altitude Azimuth Distance (km) Brightness Sun altitude
Exits shadow 20:25:50 27° 96° (E) 1,167 4.0 -16.6°
Maximum altitude 20:26:06 28° 89° (E) 1,161 4.0 -16.6°
Drops below altitude 10° 20:29:47 10° 31° (NNE) 1,959 5.7 -17.1°
Sets 20:32:14 0° 20° (NNE) 2,863 6.7 -17.5°
